Flag for U.S.A. Weather past 2 weeks in Manassas, Virginia, U.S.A.

Now
27 °F

Mostly cloudy.


Feels Like: 23 °F
Forecast: 18 / 41 °F
Wind: 3 mph from South

Location: Manassas Municipal

Current Time: Feb 1, 2015 at 7:41:09 AM

Latest Report: Feb 1, 2015 at 6:50 AM


Visibility: 10 mi

Pressure: 30.29 "Hg

Humidity: 93%

Dew point: 25 °F

Location of ManassasLocation

Historic Weather in Manassas — Graph

°F

Manassas temperature yesterday

Maximum temperature yesterday: 36 °F (at 2:45 PM)
Minimum temperature yesterday: 18 °F (at 5:55 AM)
Average temperature yesterday: 22 °F

Past Weeks' High & Low Weather Summary

 TemperatureHumidityPressure
High48 °F (Jan 19, 2:45 PM)100% (Jan 18, 1:35 AM)30.42 "Hg (Jan 18, 1:35 AM)
Low14 °F (Jan 29, 5:35 AM)28% (Jan 28, 2:45 PM)29.49 "Hg (Jan 24, 11:55 AM)
Average31 °F82%30.03 "Hg
* Reported Jan 17 6:15 AM — Feb 1 6:35 AM, Manassas, Weather by CustomWeather, © 2014

Note: Actual official high and low records may vary slightly from our data, if they occured in-between our weather recording intervals... More about our weather records

Advertising

Manassas weather history for previous 24 hours

 ConditionsComfort  
Time TempWeatherWind HumidityBarometerVisibility
6:35 AM
Feb 1
25 °FOvercast.No wind93%30.29 "Hg10 mi
6:15 AM25 °FOvercast.No wind93%30.29 "Hg10 mi
5:55 AM25 °FOvercast.No wind86%30.28 "Hg10 mi
5:35 AM25 °FMostly cloudy.No wind86%30.28 "Hg10 mi
5:15 AM25 °FOvercast.No wind86%30.27 "Hg10 mi
4:55 AM23 °FOvercast.No wind93%30.26 "Hg10 mi
4:35 AM23 °FOvercast.No wind93%30.27 "Hg10 mi
4:15 AM23 °FOvercast.No wind86%30.27 "Hg10 mi
3:55 AM21 °FOvercast.No wind93%30.27 "Hg10 mi
3:35 AM21 °FPassing clouds.No wind93%30.28 "Hg10 mi
3:15 AM21 °FClear.No wind93%30.28 "Hg10 mi
2:55 AM21 °FClear.No wind93%30.28 "Hg10 mi
2:35 AM21 °FClear.No wind93%30.28 "Hg10 mi
2:15 AM21 °FClear.No wind86%30.29 "Hg10 mi
1:55 AM21 °FClear.No wind86%30.29 "Hg10 mi
1:35 AM19 °FClear.No wind93%30.28 "Hg10 mi
1:15 AM19 °FClear.No wind93%30.28 "Hg10 mi
12:55 AM19 °FClear.3 mph93%30.28 "Hg10 mi
12:35 AM19 °FClear.No wind93%30.28 "Hg10 mi
12:15 AM18 °FClear.No wind100%30.28 "Hg10 mi
11:55 PM
Jan 31
19 °FClear.No wind93%30.28 "Hg10 mi
11:35 PM19 °FClear.No wind93%30.28 "Hg10 mi
11:15 PM19 °FClear.3 mph86%30.28 "Hg10 mi
10:55 PM19 °FClear.No wind93%30.27 "Hg10 mi
9:45 PM19 °FClear.No wind93%30.28 "Hg10 mi
8:45 PM21 °FClear.No wind86%30.28 "Hg10 mi
7:45 PM21 °FClear.No wind86%30.29 "Hg10 mi
5:45 PM28 °FClear.No wind59%30.28 "Hg10 mi
4:45 PM36 °FSunny.5 mph32%30.27 "Hg10 mi
3:45 PM36 °FSunny.6 mph32%30.27 "Hg10 mi
2:45 PM36 °FSunny.13 mph32%30.27 "Hg10 mi
1:45 PM34 °FSunny.9 mph35%30.29 "Hg10 mi
12:45 PM28 °FSunny.10 mph43%30.31 "Hg10 mi
11:45 AM28 °FSunny.9 mph43%30.35 "Hg10 mi
10:45 AM27 °FSunny.10 mph43%30.36 "Hg10 mi
9:45 AM25 °FSunny.16 mph46%30.36 "Hg10 mi
8:45 AM21 °FSunny.10 mph45%30.34 "Hg10 mi
7:50 AM19 °FSunny.6 mph58%30.35 "Hg10 mi
Weather by CustomWeather, © 2014

See weather overviewHow to use our weather pages